SB KEPS @ AMSAT $ORB11209.O Orbital Elements 11209.OSCAR
HR AMSAT ORBITAL ELEMENTS FOR OSCAR SATELLITES FROM WA5QGD FORT WORTH,TX July 28, 2011 Send Subscribe/unsubscribe to KEPS at http://www.amsat.org/mailman/listinfo/keps BID: ORB11209.O TO ALL RADIO AMATEURS BT
Satellite: AO-07 Catalog number: 07530 Epoch time: 11209.57539779 Element set: 140 Inclination: 101.3933 deg RA of node: 214.4843 deg Eccentricity: 0.0011634 Arg of perigee: 197.2179 deg Mean anomaly: 162.8496 deg Mean motion: 12.53583236 rev/day Decay rate: -2.7e-07 rev/day^2 Epoch rev: 67937 Checksum: 316
Satellite: FO-29 Catalog number: 24278 Epoch time: 11209.83847830 Element set: 624 Inclination: 098.5514 deg RA of node: 348.3588 deg Eccentricity: 0.0351007 Arg of perigee: 149.1783 deg Mean anomaly: 213.0490 deg Mean motion: 13.52963599 rev/day Decay rate: -5.0e-07 rev/day^2 Epoch rev: 73809 Checksum: 335
Satellite: SO-33 Catalog number: 25509 Epoch time: 11209.74724569 Element set: 20 Inclination: 031.4358 deg RA of node: 009.2535 deg Eccentricity: 0.0354444 Arg of perigee: 245.0811 deg Mean anomaly: 111.2655 deg Mean motion: 14.28434072 rev/day Decay rate: 3.56e-06 rev/day^2 Epoch rev: 66622 Checksum: 281
Satellite: RS-22 Catalog number: 27939 Epoch time: 11209.65237869 Element set: 485 Inclination: 097.8427 deg RA of node: 061.6609 deg Eccentricity: 0.0012785 Arg of perigee: 210.1378 deg Mean anomaly: 149.9087 deg Mean motion: 14.63615975 rev/day Decay rate: 2.17e-06 rev/day^2 Epoch rev: 41840 Checksum: 342
Satellite: VO-52 Catalog number: 28650 Epoch time: 11209.61554687 Element set: 857 Inclination: 097.6399 deg RA of node: 250.8878 deg Eccentricity: 0.0027530 Arg of perigee: 028.2872 deg Mean anomaly: 331.9850 deg Mean motion: 14.82124524 rev/day Decay rate: 4.36e-06 rev/day^2 Epoch rev: 33688 Checksum: 343
Satellite: SO-67 Catalog number: 35870 Epoch time: 11209.80369753 Element set: 71 Inclination: 097.2785 deg RA of node: 251.7739 deg Eccentricity: 0.0001056 Arg of perigee: 188.8425 deg Mean anomaly: 282.9937 deg Mean motion: 15.20905423 rev/day Decay rate: 1.067e-05 rev/day^2 Epoch rev: 10326 Checksum: 324
Satellite: HO-68 Catalog number: 36122 Epoch time: 11209.73898033 Element set: 598 Inclination: 100.4125 deg RA of node: 269.9162 deg Eccentricity: 0.0007746 Arg of perigee: 128.5180 deg Mean anomaly: 231.6631 deg Mean motion: 13.16287400 rev/day Decay rate: -4.4e-07 rev/day^2 Epoch rev: 7770 Checksum: 296
/EX SB KEPS @ AMSAT $ORB11209.D Orbital Elements 11209.MICROS
HR AMSAT ORBITAL ELEMENTS FOR THE MICROSATS FROM WA5QGD FORT WORTH,TX July 28, 2011 Send Subscribe/unsubscribe to KEPS at http://www.amsat.org/mailman/listinfo/keps BID: ORB11209.D TO ALL RADIO AMATEURS BT
Satellite: UO-11 Catalog number: 14781 Epoch time: 11209.78601988 Element set: 612 Inclination: 098.0031 deg RA of node: 266.3599 deg Eccentricity: 0.0009115 Arg of perigee: 012.3368 deg Mean anomaly: 347.8061 deg Mean motion: 14.80003939 rev/day Decay rate: 5.8e-07 rev/day^2 Epoch rev: 47194 Checksum: 307
Satellite: AO-16 Catalog number: 20439 Epoch time: 11208.89957283 Element set: 242 Inclination: 098.3872 deg RA of node: 157.1617 deg Eccentricity: 0.0011854 Arg of perigee: 045.5761 deg Mean anomaly: 314.6388 deg Mean motion: 14.31930697 rev/day Decay rate: 6.3e-07 rev/day^2 Epoch rev: 12344 Checksum: 318
Satellite: LO-19 Catalog number: 20442 Epoch time: 11208.90281589 Element set: 0173 Inclination: 098.3500 deg RA of node: 161.3608 deg Eccentricity: 0.0012586 Arg of perigee: 039.3181 deg Mean anomaly: 320.8916 deg Mean motion: 14.32155195 rev/day Decay rate: 3.0e-07 rev/day^2 Epoch rev: 12362 Checksum: 277
Satellite: AO-27 Catalog number: 22825 Epoch time: 11208.96134221 Element set: 0876 Inclination: 098.5334 deg RA of node: 152.5779 deg Eccentricity: 0.0008765 Arg of perigee: 150.5828 deg Mean anomaly: 209.5845 deg Mean motion: 14.29355894 rev/day Decay rate: 6.0e-07 rev/day^2 Epoch rev: 93001 Checksum: 325
Satellite: IO-26 Catalog number: 22826 Epoch time: 11208.95331037 Element set: 0620 Inclination: 098.5269 deg RA of node: 153.0315 deg Eccentricity: 0.0009134 Arg of perigee: 144.3533 deg Mean anomaly: 215.8259 deg Mean motion: 14.29618766 rev/day Decay rate: 2.3e-07 rev/day^2 Epoch rev: 93013 Checksum: 290
Satellite: GO-32 Catalog number: 25397 Epoch time: 11209.60224501 Element set: 539 Inclination: 098.3284 deg RA of node: 199.9538 deg Eccentricity: 0.0001780 Arg of perigee: 123.7573 deg Mean anomaly: 236.3797 deg Mean motion: 14.23213623 rev/day Decay rate: -6.7e-07 rev/day^2 Epoch rev: 67785 Checksum: 325
Satellite: NO-44 Catalog number: 26931 Epoch time: 11209.66565992 Element set: 811 Inclination: 067.0505 deg RA of node: 236.6474 deg Eccentricity: 0.0006157 Arg of perigee: 256.4074 deg Mean anomaly: 103.6378 deg Mean motion: 14.29670120 rev/day Decay rate: 1.17e-06 rev/day^2 Epoch rev: 51285 Checksum: 302
Satellite: SO-50 Catalog number: 27607 Epoch time: 11208.49510150 Element set: 0526 Inclination: 064.5567 deg RA of node: 205.1856 deg Eccentricity: 0.0076213 Arg of perigee: 312.6787 deg Mean anomaly: 046.7924 deg Mean motion: 14.71777682 rev/day Decay rate: 1.63e-06 rev/day^2 Epoch rev: 46202 Checksum: 306
Satellite: CO-55 Catalog number: 27844 Epoch time: 11208.52840971 Element set: 162 Inclination: 098.7066 deg RA of node: 216.6436 deg Eccentricity: 0.0010755 Arg of perigee: 081.0429 deg Mean anomaly: 279.1967 deg Mean motion: 14.20827920 rev/day Decay rate: 9.1e-07 rev/day^2 Epoch rev: 41864 Checksum: 318
Satellite: CO-57 Catalog number: 27848 Epoch time: 11208.54853173 Element set: 0114 Inclination: 098.7134 deg RA of node: 215.8663 deg Eccentricity: 0.0010824 Arg of perigee: 086.1006 deg Mean anomaly: 274.1418 deg Mean motion: 14.20605772 rev/day Decay rate: 8.5e-07 rev/day^2 Epoch rev: 41859 Checksum: 306
Satellite: AO-51 Catalog number: 28375 Epoch time: 11208.87676489 Element set: 0032 Inclination: 098.1012 deg RA of node: 185.1884 deg Eccentricity: 0.0083752 Arg of perigee: 307.5928 deg Mean anomaly: 051.7683 deg Mean motion: 14.40769651 rev/day Decay rate: 5.1e-07 rev/day^2 Epoch rev: 37192 Checksum: 330
Satellite: CP3 Catalog number: 31129 Epoch time: 11208.72407920 Element set: 0929 Inclination: 097.8966 deg RA of node: 230.5923 deg Eccentricity: 0.0103404 Arg of perigee: 055.6361 deg Mean anomaly: 305.4512 deg Mean motion: 14.52524015 rev/day Decay rate: 2.77e-06 rev/day^2 Epoch rev: 22672 Checksum: 282
Satellite: CO-65 Catalog number: 32785 Epoch time: 11209.60045644 Element set: 54 Inclination: 097.8468 deg RA of node: 272.6968 deg Eccentricity: 0.0015705 Arg of perigee: 044.3346 deg Mean anomaly: 315.9132 deg Mean motion: 14.82058730 rev/day Decay rate: 1.74e-06 rev/day^2 Epoch rev: 17567 Checksum: 321
Satellite: PRISM Catalog number: 33493 Epoch time: 11209.68973041 Element set: 813 Inclination: 098.1291 deg RA of node: 338.9182 deg Eccentricity: 0.0018358 Arg of perigee: 267.1623 deg Mean anomaly: 092.7489 deg Mean motion: 14.81803422 rev/day Decay rate: 8.18e-06 rev/day^2 Epoch rev: 13566 Checksum: 320
Satellite: SOHLA-1 Catalog number: 33496 Epoch time: 11208.96934832 Element set: 0488 Inclination: 098.0836 deg RA of node: 318.3950 deg Eccentricity: 0.0006825 Arg of perigee: 003.4058 deg Mean anomaly: 356.7188 deg Mean motion: 14.69637617 rev/day Decay rate: 2.6e-07 rev/day^2 Epoch rev: 13447 Checksum: 332
Satellite: TISAT-1 Catalog number: 36799 Epoch time: 11209.69901418 Element set: 86 Inclination: 098.0985 deg RA of node: 278.3578 deg Eccentricity: 0.0016161 Arg of perigee: 139.2646 deg Mean anomaly: 220.9778 deg Mean motion: 14.80634056 rev/day Decay rate: 6.01e-06 rev/day^2 Epoch rev: 5645 Checksum: 334
Satellite: STUDSAT Catalog number: 36801 Epoch time: 11208.82500573 Element set: 0224 Inclination: 098.1056 deg RA of node: 277.3679 deg Eccentricity: 0.0014229 Arg of perigee: 130.4129 deg Mean anomaly: 229.8326 deg Mean motion: 14.80808989 rev/day Decay rate: 1.769e-05 rev/day^2 Epoch rev: 05631 Checksum: 309
Satellite: RAX Catalog number: 37223 Epoch time: 11152.36844328 Element set: 0173 Inclination: 071.9713 deg RA of node: 073.6151 deg Eccentricity: 0.0021634 Arg of perigee: 311.5989 deg Mean anomaly: 048.3343 deg Mean motion: 14.77415682 rev/day Decay rate: 6.35e-06 rev/day^2 Epoch rev: 02854 Checksum: 291
Satellite: OOREOS Catalog number: 37224 Epoch time: 11153.29456974 Element set: 0179 Inclination: 071.9726 deg RA of node: 071.8135 deg Eccentricity: 0.0020315 Arg of perigee: 307.7637 deg Mean anomaly: 052.1684 deg Mean motion: 14.77036357 rev/day Decay rate: 4.92e-06 rev/day^2 Epoch rev: 02867 Checksum: 309
Satellite: FO-69 Catalog number: 37227 Epoch time: 11208.50244384 Element set: 0092 Inclination: 071.9704 deg RA of node: 310.3714 deg Eccentricity: 0.0017972 Arg of perigee: 210.7452 deg Mean anomaly: 149.2650 deg Mean motion: 14.76616596 rev/day Decay rate: 1.72e-06 rev/day^2 Epoch rev: 01527 Checksum: 296
Satellite: NANOSALD Catalog number: 37361 Epoch time: 11205.21512859 Element set: 0293 Inclination: 071.9498 deg RA of node: 308.5773 deg Eccentricity: 0.0017142 Arg of perigee: 072.4205 deg Mean anomaly: 287.8812 deg Mean motion: 15.11792873 rev/day Decay rate: 2.82048e-03 rev/day^2 Epoch rev: 02769 Checksum: 316
Satellite: FO-70 Catalog number: 37380 Epoch time: 11208.45474935 Element set: 0227 Inclination: 071.9736 deg RA of node: 310.6330 deg Eccentricity: 0.0018440 Arg of perigee: 207.8270 deg Mean anomaly: 152.1907 deg Mean motion: 14.76381866 rev/day Decay rate: 1.66e-06 rev/day^2 Epoch rev: 03680 Checksum: 299
/EX SB KEPS @ AMSAT $ORB11209.W Orbital Elements 11209.WEATHER
HR AMSAT ORBITAL ELEMENTS FOR WEATHER SATELLITES FROM WA5QGD FORT WORTH,TX July 28, 2011 Send Subscribe/unsubscribe to KEPS at http://www.amsat.org/mailman/listinfo/keps BID: ORB11209.W TO ALL RADIO AMATEURS BT
